Showing default

QIANFAN-44, 62245

Orbit data source: Space-Track

QIANFAN-44, 62245 is a Chinese payload satellite in LEO that was launched on Thu, 05 Dec 2024 UTC via a CHANG ZHENG 6A launch vehicle from the Taiyaun Space Center, China (TSC). Payload-class satellites include a variety of spacecraft equipped with specific instruments for various scientific and technological missions. These include communications satellites like Starlink; space stations such as the ISS; scientific satellites like the Hubble; Earth observation satellites from companies like Planet Labs, Umbra, and HawkEye 360; GPS; miniature CubeSats for education and research; and military/defense satellites.

Loading next visibility...
Identifier
62245, 2024-232J
Orbit
LEO
Country
Flag of CNCN / PRC
Related business
Manufacturer
SECM
Mission
Operational Commercial Communications
Bus & Motor
QIANFAN, Unknown motor
Mass
267 kg wet, ~267 kg dry
Launch date (UTC)
2024-12-05 (9 months ago)
Launch vehicle
CHANG ZHENG 6A
Launch site
Taiyaun Space Center, China (TSC)
Object type
Payload
Rocket body
Debris
Shape & HBR
Box + 1 Pan, 5.0 m
Radar Cross Section
13.200 m², Large (>1 m²)

Expand to show TLE details & history
Last TLE update: 11 hours ago

TLE from 11 hours ago
0 QIANFAN-44
1 62245U 24232J   25242.90699525  .00000087  00000-0  11595-3 0  9991
2 62245  88.9948  51.5484 0015249 129.1131 231.1378 13.50964498 85314
Epoch: 2025-08-30T21:46Z
TLE epoch observation values (Epoch: 2025-08-30T21:46:04.389Z)
Latitude
-0.00009°
Longitude
105.69555°
Altitude
1,078.802 km
Speed
7.309 km/s
True Right ascension
03h 26m 11s
True Declination
0° 00' 00"
Sunlit
Object was in daylight at epoch
Visualization orbit readout
Latitude
Unknown
Longitude
Unknown
Altitude
Unknown
Speed
Unknown
Apparent Right ascension
Unknown
Apparent Declination
Unknown
Sunlit
N/A
Visualization observer readout
Local Sidereal Time
23:58:11
Azimuth
Unknown
Elevation
Unknown
Doppler factor
Unknown
Orbital elements
Apogee altitude
1,077.114 km
Perigee altitude
1,054.412 km
Semi-major axis
7,443.9 km
Eccentricity
0.00152
Inclination
88.9948°
RAAN
51.5484°
Arg. of periapsis
129.1131°
True anomaly
231.0019°
Mean anomaly
231.1378°
Eccentric anomaly
231.06983°
Mean motion
3.37942 °/min
Orbital period
106.53 mins
BSTAR
0.00011595
Loading maneuver chart data...
Computing Atmospheric mass density...
Loading historical data...
Loading historical data...
Loading historical data...
Loading historical data...
Loading historical data...
Loading historical data...
Loading historical data...

Documentation

Showing up to 5 results
|